DELTA 1 DEB, 10715

Orbit data source: Space-Track

DELTA 1 DEB, 10715 is space debris in LEO originally from a launch on Thu, 29 Jul 1976 UTC launched from the Air Force Western Test Range (AFWTR). Debris objects in space refer to the collection of defunct objects orbiting the Earth. Examples of debris include non-operational satellites, rocket bodies, and fragments generated from explosions, collisions, or faulty payload assembly.

Loading next visibility...
Identifier
10715, 1976-077AL
Orbit
LEO
Country
Flag of USUS
Related business
Manufacturer
Unknown
Mission
Spacecraft
Bus & Motor
Unknown
Mass
Unknown
Launch date (UTC)
1976-07-29 (49 years ago)
Launch vehicle
Unknown
Launch site
Air Force Western Test Range (AFWTR)
Object type
Payload
Rocket body
Debris
Shape & HBR
Unknown
Radar Cross Section
Medium (>0.1 m² and <1 m²)

Expand to show TLE details & history
Last TLE update: 20 hours ago

TLE from 20 hours ago
0 DELTA 1 DEB
1 10715U 76077AL  25260.95054944 -.00000037  00000-0  35859-4 0  9991
2 10715 102.5126  46.8407 0433823 298.6665 193.5283 11.63934504 90519
Epoch: 2025-09-17T22:48Z
TLE epoch observation values (Epoch: 2025-09-17T22:48:47.471Z)
Latitude
47.45594°
Longitude
-98.54665°
Altitude
2,201.282 km
Speed
6.675 km/s
True Right ascension
16h 03m 04s
True Declination
47° 18' 48"
Sunlit
Object was in daylight at epoch
Visualization orbit readout
Latitude
Unknown
Longitude
Unknown
Altitude
Unknown
Speed
Unknown
Apparent Right ascension
Unknown
Apparent Declination
Unknown
Sunlit
N/A
Visualization observer readout
Local Sidereal Time
11:35:08
Azimuth
Unknown
Elevation
Unknown
Doppler factor
Unknown
Orbital elements
Apogee altitude
2,200.891 km
Perigee altitude
1,487.484 km
Semi-major axis
8,222.324 km
Eccentricity
0.04338
Inclination
102.5126°
RAAN
46.8407°
Arg. of periapsis
298.6665°
True anomaly
192.42382°
Mean anomaly
193.5283°
Eccentric anomaly
192.97041°
Mean motion
2.91106 °/min
Orbital period
123.67 mins
BSTAR
0.000035859
Loading maneuver chart data...
Computing Atmospheric mass density...
Loading historical data...
Loading historical data...
Loading historical data...
Loading historical data...
Loading historical data...
Loading historical data...
Loading historical data...

Documentation

Showing up to 5 results
|